User: anonymous
Location: Hartman Creek State Park
(44.3257°N, 89.2134°W)
Time: 06:05:26
(UTC-05:00)
Language:

Cosmos 2263 Rocket - Orbit

View from above orbital plane
View from above orbital plane
View from above satellite
View from above satellite

Ground track
Ground track

The orbit data is extracted from the following two-line orbital elements,

1 22803U 93059B   14237.25911796 -.00000071  00000-0 -11727-4 0  3488
2 22803 070.9883 253.2721 0015981 156.0996 204.0873 14.16670400 82838
Epoch (UTC): 25 August 2014 06:13:07
Eccentricity: 0.0015981
inclination: 70.9883°
perigee height: 825 km
apogee height: 848 km
right ascension of ascending node: 253.2721°
argument of perigee: 156.0996°
revolutions per day: 14.16670400
mean anomaly at epoch: 204.0873°
orbit number at epoch: 8283

The dashed part of the orbit path shows where the satellite is in the earth's shadow,  

DLR